This demonstration page uses our WeatherBlox Daily Observations layout. Learn more.

Left ArrowRight Arrow

Hourly Observations for April 14, 2021

Temp ( °F °C ) Dew Point ( °F °C ) Humidity (%) Winds ( mph kmh ) Pressure ( in mb ) Visibility ( mi km ) Precip ( " mm )
12:15 am 00:15 Clear 38 3.1 24 -4.5 58 58 NE 10 17 30.32 1027 10 16.0934 0 0
12:35 am 00:35 Clear 37 2.6 24 -4.7 59 59 NNE 13 20 30.32 1027 10 16.0934 0 0
12:55 am 00:55 Clear 37 2.8 23 -5 57 57 NNE 12 19 30.33 1027 10 16.0934 0 0
1:15 am 01:15 Clear 36 2.2 23 -5 59 59 NNE 10 17 30.34 1028 10 16.0934 0 0
1:35 am 01:35 Clear 35 1.4 23 -4.8 64 64 NNE 13 20 30.35 1028 10 16.0934 0 0
1:55 am 01:55 Clear 35 1.5 23 -5 62 62 NNE 13 20 30.35 1028 10 16.0934 0 0
2:15 am 02:15 Clear 33 0.8 23 -5.1 65 65 NNE 10 17 30.37 1028 10 16.0934 0 0
2:35 am 02:35 Clear 33 0.3 22 -5.3 66 66 NNE 10 17 30.38 1029 10 16.0934 0 0
2:55 am 02:55 Clear 32 0 22 -5.5 67 67 NNE 9 15 30.39 1029 10 16.0934 0 0
3:15 am 03:15 Clear 31 -0.3 22 -5.5 68 68 NNE 6 9 30.39 1029 10 16.0934 0 0
3:35 am 03:35 Clear 30 -1.3 22 -5.8 72 72 N 8 13 30.4 1029 10 16.0934 0 0
3:55 am 03:55 Clear 29 -1.8 21 -6.1 73 73 N 8 13 30.4 1030 10 16.0934 0 0
4:15 am 04:15 Clear 28 -2.3 21 -6 76 76 N 7 11 30.41 1030 10 16.0934 0 0
4:35 am 04:35 Clear 29 -1.8 22 -5.7 75 75 N 6 9 30.4 1030 10 16.0934 0 0
4:55 am 04:55 Clear 29 -1.8 21 -6 73 73 N 6 9 30.4 1030 10 16.0934 0 0
5:15 am 05:15 Clear 28 -2.2 21 -6.2 74 74 N 5 7 30.41 1030 10 16.0934 0 0
5:35 am 05:35 Clear 27 -2.6 20 -6.4 75 75 N 7 11 30.41 1030 10 16.0934 0 0
5:55 am 05:55 Clear 28 -2.2 21 -6.2 74 74 NNW 6 9 30.41 1030 10 16.0934 0 0
6:15 am 06:15 Clear 28 -2.3 21 -6.2 75 75 N 6 9 30.41 1030 10 16.0934 0 0
6:35 am 06:35 Partly Cloudy 28 -2.4 21 -6.2 75 75 N 5 7 30.42 1030 10 16.0934 0 0
6:55 am 06:55 Mostly Cloudy 28 -2.5 21 -6.3 75 75 N 6 9 30.42 1030 10 16.0934 0 0
7:15 am 07:15 Cloudy 28 -2 21 -6 74 74 N 6 9 30.42 1030 10 16.0934 0 0
7:35 am 07:35 Mostly Cloudy 30 -1.3 21 -6 71 71 N 8 13 30.42 1030 10 16.0934 0 0
7:55 am 07:55 Cloudy 31 -0.5 22 -5.8 68 68 N 9 15 30.41 1030 10 16.0934 0 0
8:15 am 08:15 Cloudy 32 0 21 -5.9 65 65 N 9 15 30.42 1030 10 16.0934 0 0
8:35 am 08:35 Cloudy 32 0 22 -5.8 65 65 N 9 15 30.43 1030 10 16.0934 0 0
8:55 am 08:55 Cloudy 32 0.2 22 -5.8 64 64 N 13 20 30.42 1030 10 16.0934 0 0
9:15 am 09:15 Mostly Cloudy 33 0.5 22 -5.4 65 65 N 12 19 30.42 1030 10 16.0934 0 0
9:35 am 09:35 Partly Cloudy 34 1.2 22 -5.7 60 60 N 16 26 30.4 1030 10 16.0934 0 0
9:55 am 09:55 Partly Cloudy 35 1.8 22 -5.3 60 60 N 10 17 30.4 1029 10 16.0934 0 0
10:15 am 10:15 Cloudy 36 2.3 22 -5.3 58 58 N 16 26 30.39 1029 10 16.0934 0 0
10:35 am 10:35 Cloudy 37 2.9 22 -5.3 55 55 N 10 17 30.41 1030 10 16.0934 0 0
10:55 am 10:55 Cloudy 38 3.5 23 -5.1 54 54 N 12 19 30.4 1030 10 16.0934 0 0
11:15 am 11:15 Cloudy 38 3.4 22 -5.4 53 53 N 14 22 30.39 1029 10 16.0934 0 0
11:35 am 11:35 Mostly Cloudy 40 4.6 24 -4.4 52 52 N 15 24 30.37 1029 10 16.0934 0 0
11:55 am 11:55 Mostly Cloudy 39 4.1 24 -4.6 54 54 N 13 20 30.38 1029 10 16.0934 0 0
12:15 pm 12:15 Cloudy 40 4.3 24 -4.7 52 52 N 12 19 30.37 1028 10 16.0934 0 0
12:35 pm 12:35 Mostly Cloudy 41 5 24 -4.2 52 52 N 15 24 30.37 1028 10 16.0934 0 0
12:55 pm 12:55 Partly Cloudy 41 5.1 26 -3.3 55 55 N 13 20 30.36 1028 10 16.0934 0 0
1:15 pm 13:15 Partly Cloudy 41 4.9 28 -2.5 59 59 N 12 19 30.35 1028 10 16.0934 0 0
1:35 pm 13:35 Mostly Cloudy 41 4.9 29 -1.8 62 62 N 10 17 30.35 1028 10 16.0934 0 0
1:55 pm 13:55 Mostly Cloudy 40 4.5 30 -1.3 66 66 N 9 15 30.34 1028 10 16.0934 0 0
2:15 pm 14:15 Mostly Cloudy 40 4.6 30 -0.9 68 68 N 14 22 30.33 1027 10 16.0934 0 0
2:35 pm 14:35 Mostly Cloudy 41 5.2 30 -1 65 65 N 9 15 30.32 1027 10 16.0934 0 0
2:55 pm 14:55 Mostly Cloudy 43 6.3 30 -1.1 59 59 N 9 15 30.31 1026 10 16.0934 0 0
3:15 pm 15:15 Cloudy 46 7.6 29 -1.6 52 52 N 9 15 30.27 1025 10 16.0934 0 0
3:35 pm 15:35 Partly Cloudy 47 8.4 29 -1.9 49 49 N 8 13 30.26 1025 10 16.0934 0 0
3:55 pm 15:55 Sunny 47 8.6 27 -2.7 45 45 NNE 9 15 30.25 1024 10 16.0934 0 0
4:15 pm 16:15 Sunny 48 9 27 -2.8 44 44 N 10 17 30.23 1024 10 16.0934 0 0
4:35 pm 16:35 Partly Cloudy 48 9.1 27 -2.7 44 44 N 9 15 30.22 1023 10 16.0934 0 0
4:55 pm 16:55 Mostly Cloudy 48 9 26 -3.2 42 42 NNE 14 22 30.22 1023 10 16.0934 0 0
5:15 pm 17:15 Partly Cloudy 48 9 26 -3.2 42 42 N 13 20 30.22 1023 10 16.0934 0 0
5:35 pm 17:35 Sunny 48 9 26 -3.3 42 42 NNE 9 15 30.22 1023 10 16.0934 0 0
5:55 pm 17:55 Sunny 48 8.7 26 -3.4 43 43 NNE 13 20 30.22 1024 10 16.0934 0 0
6:15 pm 18:15 Sunny 47 8.3 26 -3.5 44 44 NNE 9 15 30.23 1024 10 16.0934 0 0
6:35 pm 18:35 Sunny 47 8.3 26 -3.6 43 43 NNE 9 15 30.23 1024 10 16.0934 0 0
6:55 pm 18:55 Partly Cloudy 47 8.2 25 -3.7 43 43 N 8 13 30.23 1024 10 16.0934 0 0
7:15 pm 19:15 Mostly Cloudy 46 8 25 -4 43 43 NNE 8 13 30.22 1023 10 16.0934 0 0
7:35 pm 19:35 Partly Cloudy 46 7.5 25 -4 44 44 NNE 9 15 30.23 1024 10 16.0934 0 0
7:55 pm 19:55 Sunny 44 6.7 25 -4 47 47 N 7 11 30.23 1024 10 16.0934 0 0
8:15 pm 20:15 Partly Cloudy 42 5.5 25 -4.1 50 50 NNE 6 9 30.25 1025 10 16.0934 0 0
8:35 pm 20:35 Partly Cloudy 39 4.1 23 -5 52 52 NNE 7 11 30.27 1025 10 16.0934 0 0
8:55 pm 20:55 Clear 37 3 23 -5.1 56 56 NNE 5 7 30.29 1026 10 16.0934 0 0
9:15 pm 21:15 Clear 37 2.9 24 -4.7 58 58 NNE 5 7 30.3 1026 10 16.0934 0 0
9:35 pm 21:35 Clear 35 1.9 23 -5 61 61 NNE 6 9 30.32 1027 10 16.0934 0 0
9:55 pm 21:55 Clear 35 1.6 23 -5.1 61 61 NNE 6 9 30.33 1027 10 16.0934 0 0
10:15 pm 22:15 Partly Cloudy 34 1.1 22 -5.3 63 63 N 3 6 30.35 1028 10 16.0934 0 0
10:35 pm 22:35 Mostly Cloudy 35 1.4 24 -4.7 64 64 N 3 6 30.35 1028 10 16.0934 0 0
10:55 pm 22:55 Cloudy 36 2.1 25 -3.9 65 65 Calm 30.35 1028 10 16.0934 0 0
11:15 pm 23:15 Cloudy 37 2.5 25 -3.8 64 64 NNE 5 7 30.34 1027 10 16.0934 0 0
11:35 pm 23:35 Cloudy 37 3 27 -2.9 66 66 NNE 6 9 30.34 1027 10 16.0934 0 0
11:55 pm 23:55 Mostly Cloudy 36 2.2 26 -3.3 67 67 NE 7 11 30.34 1028 10 16.0934 0 0

Powered by AerisWeather